Weather History for Rickenbacker, OH

Change the Weather History Date:

Monday, November 12, 2012

  Actual Average Record
Temperature  
Mean Temperature 48 °F -  
Max Temperature 63 °F 50 °F 68 °F (2007)
Min Temperature 32 °F 34 °F 19 °F (1996)
Degree Days  
Heating Degree Days 18    
Moisture  
Dew Point 38 °F    
Average Humidity 66    
Maximum Humidity 85    
Minimum Humidity 28    
Precipitation  
Precipitation 0.00 in - - ()
Sea Level Pressure  
Sea Level Pressure 30.16 in    
Wind  
Wind Speed 13 mph (SW)    
Max Wind Speed 26 mph    
Max Gust Speed 33 mph    
Visibility 9 miles    
Events Rain    
Averages and records for this station are not official NWS values.
T = Trace of Precipitation, MM = Missing Value Source: NWS Daily Summary

Daily Weather History Graph

Daily Weather History Graph

Search for Another Location

Airport:

Trip Planner

Search our weather history database for the weather conditions in past years. The results will help you decide how hot, cold, wet, or windy it might be!

Date:

Astronomy

Nov. 12, 2012 Rise Set
Actual Time 7:13 AM EST 5:17 PM EST
Civil Twilight 6:44 AM EST 5:46 PM EST
Nautical Twilight 6:12 AM EST 6:19 PM EST
Astronomical Twilight 5:40 AM EST 6:50 PM EST
Moon 5:37 AM EST (11/12) 4:22 PM EST (11/12)
Length of Visible Light 11h 01m
Length of Day
10h 04m
Waning Crescent, 2% of the Moon is Illuminated
Nov 12
Waning Crescent
Nov 13
New
Nov 20
First Quarter
Nov 28
Full
Dec 6
Last Quarter

Hourly Weather History & Observations

Time (EST) Temp. Windchill Dew Point Humidity Pressure Visibility Wind Dir Wind Speed Gust Speed Precip Events Conditions
12:15 AM 59.7 °F - 27.0 °F 29% 30.11 in 10.0 mi SSE 9.2 mph - N/A   Clear
12:35 AM 60.4 °F - 27.0 °F 28% 30.12 in 10.0 mi South 11.5 mph - N/A   Clear
12:55 AM 61.2 °F - 27.5 °F 28% 30.12 in 10.0 mi South 12.7 mph - N/A   Clear
1:15 AM 62.1 °F - 29.3 °F 29% 30.13 in 10.0 mi South 12.7 mph 18.4 mph N/A   Clear
1:55 AM 61.5 °F - 32.5 °F 34% 30.13 in 10.0 mi South 10.4 mph - N/A   Clear
2:15 AM 61.0 °F - 33.6 °F 36% 30.13 in 10.0 mi South 10.4 mph - N/A   Clear
2:35 AM 60.6 °F - 34.9 °F 38% 30.13 in 10.0 mi South 12.7 mph - N/A   Clear
2:55 AM 60.4 °F - 35.4 °F 39% 30.11 in 10.0 mi SSE 11.5 mph - N/A   Clear
3:15 AM 60.6 °F - 36.0 °F 40% 30.11 in 10.0 mi SSE 11.5 mph - N/A   Clear
3:35 AM 61.2 °F - 36.7 °F 40% 30.10 in 10.0 mi SSE 12.7 mph - N/A   Clear
3:55 AM 61.7 °F - 37.6 °F 41% 30.09 in 10.0 mi SSE 13.8 mph - N/A   Scattered Clouds
4:15 AM 61.5 °F - 38.5 °F 43% 30.08 in 10.0 mi SSE 15.0 mph 18.4 mph N/A   Scattered Clouds
4:35 AM 61.5 °F - 39.0 °F 43% 30.07 in 10.0 mi SSE 13.8 mph 18.4 mph N/A   Clear
4:55 AM 61.9 °F - 39.7 °F 44% 30.06 in 10.0 mi SSE 17.3 mph - N/A   Clear
5:15 AM 62.6 °F - 40.1 °F 44% 30.06 in 10.0 mi SSE 18.4 mph 23.0 mph N/A   Clear
5:35 AM 63.0 °F - 40.5 °F 44% 30.05 in 10.0 mi SSE 19.6 mph 26.5 mph N/A   Clear
5:55 AM 63.0 °F - 40.8 °F 44% 30.04 in 10.0 mi SSE 15.0 mph - N/A   Scattered Clouds
6:15 AM 63.0 °F - 41.2 °F 45% 30.04 in 10.0 mi SSE 16.1 mph 24.2 mph N/A   Clear
6:35 AM 63.5 °F - 41.5 °F 45% 30.05 in 10.0 mi SSE 17.3 mph 21.9 mph N/A   Mostly Cloudy
6:55 AM 63.7 °F - 41.7 °F 45% 30.06 in 10.0 mi South 17.3 mph 25.3 mph N/A   Overcast
7:15 AM 63.5 °F - 41.9 °F 45% 30.08 in 10.0 mi SSW 11.5 mph - N/A   Overcast
7:35 AM 63.3 °F - 42.3 °F 46% 30.08 in 10.0 mi SSW 12.7 mph - N/A   Overcast
7:55 AM 61.0 °F - 45.0 °F 56% 30.09 in 10.0 mi South 11.5 mph - N/A Rain Light Rain
8:15 AM 58.3 °F - 48.0 °F 69% 30.08 in 7.0 mi South 12.7 mph - N/A Rain Rain
8:35 AM 57.6 °F - 49.5 °F 74% 30.08 in 7.0 mi South 15.0 mph 21.9 mph N/A Rain Light Rain
8:55 AM 57.4 °F - 50.2 °F 77% 30.06 in 7.0 mi South 17.3 mph - N/A Rain Light Rain
9:15 AM 57.6 °F - 50.4 °F 77% 30.07 in 10.0 mi South 18.4 mph 24.2 mph N/A Rain Rain
9:35 AM 57.9 °F - 50.2 °F 75% 30.05 in 10.0 mi South 20.7 mph 27.6 mph N/A Rain Light Rain
9:55 AM 58.3 °F - 50.9 °F 76% 30.05 in 10.0 mi South 19.6 mph 25.3 mph N/A Rain Rain
10:15 AM 58.3 °F - 51.6 °F 78% 30.04 in 10.0 mi South 20.7 mph 25.3 mph N/A Rain Light Rain
10:55 AM 58.6 °F - 52.3 °F 80% 30.03 in 10.0 mi South 23.0 mph 32.2 mph N/A Rain Light Rain
11:15 AM 58.8 °F - 52.3 °F 79% 30.02 in 7.0 mi South 26.5 mph 33.4 mph N/A Rain Light Rain
11:35 AM 58.1 °F - 51.6 °F 79% 30.06 in 5.0 mi WSW 16.1 mph 32.2 mph N/A Rain Heavy Rain
11:55 AM 54.5 °F - 49.1 °F 82% 30.06 in 7.0 mi West 11.5 mph 18.4 mph N/A Rain Light Rain
12:15 PM 54.0 °F - 49.1 °F 84% 30.06 in 7.0 mi West 10.4 mph - N/A Rain Rain
12:35 PM 53.2 °F - 48.0 °F 82% 30.07 in 3.0 mi WNW 15.0 mph 24.2 mph N/A Rain Light Rain
12:55 PM 50.7 °F - 45.7 °F 83% 30.07 in 4.0 mi West 11.5 mph 18.4 mph N/A Rain Rain
1:15 PM 49.6 °F - 44.6 °F 83% 30.08 in 5.0 mi WNW 13.8 mph - N/A Rain Rain
1:35 PM 48.9 °F - 43.7 °F 82% 30.10 in 4.0 mi West 13.8 mph - N/A Rain Light Rain
1:55 PM 47.5 °F - 41.9 °F 81% 30.10 in 4.0 mi WNW 10.4 mph - N/A Rain Light Rain
2:15 PM 47.3 °F - 41.7 °F 81% 30.11 in 10.0 mi WNW 12.7 mph - N/A Rain Rain
2:35 PM 46.2 °F 40.1 °F 40.5 °F 80% 30.13 in 5.0 mi West 13.8 mph 25.3 mph N/A Rain Light Rain
2:55 PM 45.7 °F 39.5 °F 39.9 °F 80% 30.14 in 7.0 mi West 13.8 mph 19.6 mph N/A Rain Light Rain
3:15 PM 45.1 °F 39.5 °F 39.4 °F 80% 30.16 in 10.0 mi West 11.5 mph - N/A Rain Light Rain
3:35 PM 44.6 °F 42.2 °F 39.0 °F 81% 30.15 in 7.0 mi WNW 4.6 mph - N/A Rain Rain
3:55 PM 43.7 °F 36.9 °F 38.3 °F 81% 30.16 in 10.0 mi West 13.8 mph - N/A Rain Light Rain
4:15 PM 43.2 °F 38.4 °F 37.4 °F 80% 30.18 in 10.0 mi West 8.1 mph - N/A   Light Drizzle
4:35 PM 42.8 °F 34.3 °F 36.9 °F 80% 30.21 in 10.0 mi West 19.6 mph 25.3 mph N/A   Overcast
4:55 PM 40.6 °F 32.7 °F 34.2 °F 78% 30.21 in 10.0 mi West 15.0 mph 23.0 mph N/A   Overcast
5:15 PM 39.7 °F 31.2 °F 32.5 °F 75% 30.23 in 10.0 mi West 16.1 mph - N/A   Overcast
5:35 PM 39.4 °F 32.7 °F 32.0 °F 75% 30.23 in 10.0 mi West 10.4 mph - N/A   Overcast
5:55 PM 39.4 °F 31.4 °F 32.0 °F 75% 30.24 in 10.0 mi West 13.8 mph 17.3 mph N/A   Overcast
6:15 PM 39.4 °F 32.3 °F 32.0 °F 75% 30.26 in 10.0 mi West 11.5 mph - N/A   Overcast
6:35 PM 39.4 °F 34.5 °F 32.2 °F 75% 30.26 in 10.0 mi WSW 6.9 mph - N/A   Scattered Clouds
6:55 PM 39.4 °F 33.2 °F 32.9 °F 78% 30.28 in 10.0 mi WSW 9.2 mph - N/A   Mostly Cloudy
7:15 PM 39.2 °F 31.2 °F 32.4 °F 76% 30.28 in 10.0 mi WSW 13.8 mph 17.3 mph N/A   Mostly Cloudy
7:35 PM 38.1 °F 31.2 °F 31.6 °F 77% 30.29 in 10.0 mi WSW 10.4 mph - N/A   Scattered Clouds
7:55 PM 36.7 °F 30.5 °F 30.7 °F 79% 30.30 in 10.0 mi SW 8.1 mph - N/A   Scattered Clouds
8:15 PM 35.6 °F 29.9 °F 30.0 °F 80% 30.31 in 10.0 mi SW 6.9 mph - N/A   Clear
8:35 PM 34.9 °F 29.9 °F 30.0 °F 82% 30.32 in 10.0 mi SW 5.8 mph - N/A   Clear
8:55 PM 34.7 °F 29.6 °F 30.0 °F 83% 30.33 in 10.0 mi SW 5.8 mph - N/A   Clear
9:15 PM 34.0 °F 28.0 °F 29.7 °F 84% 30.34 in 10.0 mi SW 6.9 mph - N/A   Clear
9:35 PM 33.8 °F 28.6 °F 29.3 °F 84% 30.34 in 10.0 mi SW 5.8 mph - N/A   Clear
9:55 PM 33.4 °F 28.1 °F 29.3 °F 85% 30.36 in 10.0 mi SW 5.8 mph - N/A   Clear
10:15 PM 32.9 °F 26.7 °F 28.6 °F 84% 30.36 in 10.0 mi WSW 6.9 mph - N/A   Clear
10:35 PM 33.3 °F 27.9 °F 28.2 °F 82% 30.37 in 10.0 mi WSW 5.8 mph - N/A   Clear
10:55 PM 33.1 °F 27.7 °F 27.5 °F 80% 30.38 in 10.0 mi WSW 5.8 mph - N/A   Clear
11:15 PM 33.4 °F 26.6 °F 27.5 °F 79% 30.38 in 10.0 mi West 8.1 mph - N/A   Clear
11:35 PM 34.0 °F 27.2 °F 27.0 °F 75% 30.39 in 10.0 mi West 8.1 mph - N/A   Clear
11:55 PM 33.6 °F 28.4 °F 25.9 °F 73% 30.39 in 10.0 mi WSW 5.8 mph - N/A   Clear